Theta_e
294 288 284 285 285 286 287 287 288 288 288 288 287 287 286 285 287 288 290 294 293 291 289 290 290 290 290 290 291 293 305 309 312 312 311 313 315 316 317 316 317 318 318 320 323 326 327 328 330 330 331 330 330 328 329 330 330 331 331 330 330 331 330 330 330 330 329 330 331 331 332 332 334 334 335 335 335 334 334 332 332 333 332 333 332 332
295 287 286 287 288 288 289 289 290 289 290 288 287 286 285 287 285 290 291 293 292 292 287 288 289 289 290 290 291 298 308 306 310 311 310 313 315 316 317 316 315 314 316 321 322 325 327 327 328 329 329 330 328 328 329 329 330 330 329 329 329 331 330 330 331 331 330 331 332 332 332 333 334 334 333 333 334 333 333 331 331 332 330 332 332 332
288 286 289 290 290 290 291 290 290 289 289 289 287 285 285 285 287 290 292 292 293 292 288 289 288 290 290 291 293 293 297 303 309 311 311 312 312 314 314 313 312 313 315 318 320 324 326 326 327 328 329 328 328 328 328 326 327 328 328 329 330 331 330 330 331 331 330 332 333 332 332 334 333 335 336 335 334 333 331 331 331 331 331 332 331 332
285 286 291 292 290 290 290 289 289 289 290 287 286 284 283 285 287 284 288 291 293 292 288 288 287 288 290 291 293 299 299 303 303 308 309 311 311 312 313 313 313 313 314 317 319 321 325 326 327 328 328 327 327 327 326 325 326 327 328 328 329 330 330 330 330 332 332 332 333 334 332 334 333 332 335 334 333 330 330 330 332 331 331 331 331 331
287 289 292 291 289 290 289 289 287 285 284 285 287 284 285 286 286 286 286 290 291 291 290 289 282 283 287 292 294 298 305 309 310 310 311 311 311 314 314 314 314 314 315 316 318 321 324 325 326 327 328 327 325 325 324 323 324 327 328 328 329 329 329 330 330 331 331 332 332 332 332 332 332 333 333 332 330 331 331 332 331 330 330 331 331 331
289 293 291 290 288 288 288 287 287 287 283 283 287 288 288 288 288 290 290 288 282 284 288 286 277 283 284 296 298 298 303 306 309 309 309 311 311 311 312 312 313 315 316 318 320 321 324 327 327 327 327 325 324 324 323 322 324 325 327 328 329 328 327 329 329 329 330 331 331 330 330 328 328 328 329 328 328 329 329 330 332 330 330 331 331 331
291 293 293 289 289 287 287 287 286 288 283 283 285 290 290 290 290 289 288 285 280 281 290 289 281 279 281 297 299 301 300 304 307 308 309 311 312 313 309 312 314 315 316 321 324 325 325 325 326 326 325 323 321 320 321 322 323 325 327 328 326 326 326 329 329 328 329 330 331 330 330 330 329 328 330 332 332 330 330 331 331 330 329 330 330 330
293 292 292 290 289 287 285 284 287 289 285 282 286 291 291 290 289 289 287 285 282 285 288 286 282 279 280 293 300 302 299 302 305 307 310 312 313 314 315 315 312 314 318 321 322 324 325 325 325 324 322 321 322 322 322 323 325 324 325 325 325 326 328 329 330 329 328 328 328 329 329 330 330 330 329 331 331 331 330 328 329 328 328 329 330 329
293 290 290 289 289 286 285 288 288 290 286 284 289 292 291 292 289 288 285 284 284 285 283 280 286 281 282 292 302 303 300 301 302 306 309 311 313 314 315 316 317 315 318 321 321 323 323 323 322 319 318 319 322 324 324 324 325 325 326 325 325 327 327 327 327 328 329 329 328 328 330 330 330 330 330 331 331 330 329 326 324 326 327 327 328 328
293 293 293 292 289 286 289 290 290 291 287 289 291 293 290 289 289 286 283 284 282 281 277 281 283 279 282 297 300 303 302 301 302 306 308 311 313 314 315 317 318 318 319 320 321 321 320 318 317 318 319 319 321 323 324 325 325 325 326 327 327 326 327 328 327 328 329 329 330 329 329 329 328 328 329 330 328 328 327 325 323 324 325 325 326 327
293 298 298 292 289 292 292 291 291 292 292 291 292 291 286 286 285 285 283 282 280 276 276 279 285 284 282 294 298 300 300 303 304 306 308 311 312 314 316 317 317 318 318 319 319 319 320 320 320 320 319 320 320 321 321 322 323 326 327 326 326 326 328 329 329 330 329 329 329 329 328 328 327 326 327 328 327 327 326 325 323 323 324 325 325 326
290 292 293 292 296 295 294 291 292 294 293 293 289 287 285 285 282 281 277 279 274 272 276 282 285 285 283 289 298 305 307 306 306 305 306 308 310 312 314 316 317 317 317 318 318 318 319 319 320 320 319 320 321 321 320 321 323 325 326 326 326 326 327 328 329 329 329 330 330 329 328 327 327 326 327 327 326 326 325 324 323 322 322 323 324 324
288 289 288 290 300 295 291 289 290 290 289 289 286 286 282 276 274 275 276 277 274 276 283 284 291 290 289 294 299 304 305 306 307 307 308 309 310 312 314 315 316 316 316 316 317 318 319 318 318 318 319 319 320 319 321 322 322 324 325 325 325 325 327 327 328 328 328 328 329 329 328 326 325 326 326 326 325 325 325 324 323 322 323 321 322 323
284 287 289 289 292 296 293 287 285 285 287 286 286 280 279 274 271 269 271 270 275 280 282 282 288 287 296 298 303 304 307 308 308 309 310 310 310 311 312 313 314 315 316 316 316 317 318 318 318 318 318 319 318 319 320 321 322 322 323 323 323 324 326 327 327 327 327 329 330 329 328 327 326 325 325 326 325 324 325 323 323 323 323 323 324 323
277 282 286 288 286 292 293 291 291 287 287 288 286 287 282 276 274 270 273 271 276 276 280 285 281 284 288 293 304 305 309 309 310 311 312 312 312 312 313 313 313 314 314 315 315 316 316 317 318 318 317 318 318 320 320 321 321 322 321 320 321 323 324 324 325 326 327 328 329 329 328 328 327 325 326 326 326 325 324 322 323 323 323 323 323 324
283 280 286 291 292 292 292 293 292 289 287 287 285 286 283 281 278 277 274 277 276 278 275 283 281 290 293 303 304 306 310 310 310 311 311 310 311 311 310 309 309 310 310 311 311 312 315 317 318 318 318 317 318 319 319 320 320 320 321 321 323 325 325 325 326 325 326 327 329 329 326 327 327 325 325 324 324 325 324 323 323 323 323 323 323 324
283 281 288 291 293 292 292 293 293 293 282 286 286 283 284 288 285 275 277 281 275 276 277 283 291 296 301 304 304 305 308 308 308 308 309 308 308 308 307 307 308 308 309 309 310 310 311 313 315 316 317 318 319 319 319 320 321 320 320 320 321 324 326 326 326 325 326 327 328 328 327 326 325 325 324 325 324 323 323 323 323 323 322 322 322 324
281 282 286 289 289 292 293 295 293 293 291 286 282 286 289 290 288 283 276 271 269 269 273 284 288 290 289 285 301 303 304 306 307 307 308 307 307 306 306 306 306 307 307 308 309 309 309 310 311 313 315 316 316 318 320 321 322 322 321 321 321 321 322 324 325 324 324 326 326 326 326 326 326 326 326 325 324 323 322 321 322 322 322 322 321 323
287 280 282 288 289 292 293 293 291 294 292 292 289 290 289 279 281 280 277 271 272 270 274 285 287 287 285 287 297 299 302 303 305 306 306 305 305 305 305 305 305 306 306 306 306 307 307 307 308 310 312 313 315 316 317 319 321 322 321 322 321 321 321 323 324 324 323 324 326 326 326 326 325 326 326 325 324 323 322 322 322 322 323 323 324 324
285 278 281 286 290 291 289 288 284 286 291 291 291 288 289 283 278 279 279 279 276 268 275 283 286 282 288 291 300 301 303 303 304 304 303 304 303 303 303 303 304 304 304 305 305 305 306 306 307 308 309 311 312 313 314 315 316 316 318 320 321 321 322 325 325 323 322 324 325 324 323 324 325 325 326 324 322 322 322 322 322 322 322 323 323 324
284 283 277 283 288 291 286 287 285 285 284 286 285 282 287 285 287 285 283 279 278 271 274 280 278 281 286 296 301 303 304 304 304 303 303 303 303 303 302 302 303 303 303 303 304 304 304 305 306 307 308 309 311 311 312 312 313 314 315 316 319 320 321 321 322 323 323 323 323 324 325 324 324 324 324 322 322 323 322 322 323 323 323 323 323 323
283 283 279 280 284 283 285 291 289 289 289 286 285 282 283 283 283 280 277 284 280 277 273 277 274 283 297 305 304 304 305 304 305 303 302 302 301 301 301 301 301 301 301 302 303 303 304 304 305 306 307 308 308 308 309 310 311 311 312 314 315 317 318 321 322 322 323 324 323 324 325 324 324 322 321 320 321 322 322 323 323 323 323 323 323 323
285 282 283 283 284 289 293 296 297 295 298 295 294 290 285 282 282 277 274 278 282 282 283 282 283 285 301 304 303 303 302 302 303 304 301 301 300 300 300 300 300 300 300 300 301 302 302 303 304 305 305 305 306 306 307 308 308 309 310 311 313 314 315 317 321 324 325 325 325 323 323 324 323 322 322 321 321 321 322 323 323 324 323 323 322 322
305 281 284 283 286 288 292 295 297 297 296 294 293 294 291 287 282 282 277 280 280 281 279 280 283 287 300 303 302 301 300 299 299 300 300 299 299 299 299 298 298 299 299 300 300 300 301 301 303 304 303 304 304 305 305 306 307 308 308 309 310 311 312 314 317 320 323 325 325 323 322 322 323 322 322 322 322 321 321 322 323 324 324 324 323 322
284 283 280 281 281 282 284 288 289 293 295 289 288 290 293 291 288 284 284 283 282 282 280 281 279 286 298 302 300 299 298 297 297 297 297 297 297 298 298 298 298 298 298 298 298 298 299 299 299 300 302 302 303 303 304 304 305 306 306 307 308 309 310 311 314 316 320 324 325 324 321 322 323 322 322 323 322 322 322 322 323 324 324 324 323 321
288 284 281 277 276 274 273 275 280 283 287 287 290 291 291 291 287 286 282 281 279 282 282 283 284 292 297 298 297 297 296 296 296 296 297 296 296 296 296 297 297 297 297 297 297 297 297 297 298 298 299 301 301 302 303 303 304 304 305 306 306 307 308 309 311 312 316 320 322 323 322 322 323 323 322 322 321 321 322 323 323 324 324 324 323 320
286 288 282 278 280 279 279 283 289 289 288 284 288 289 289 290 288 285 282 280 280 281 282 288 291 290 291 293 293 293 294 293 293 294 294 294 295 296 296 296 296 296 296 296 297 297 297 297 297 297 298 299 300 300 301 302 302 303 303 304 305 306 307 308 309 310 313 319 321 321 320 321 320 321 322 322 321 321 323 323 323 322 322 323 322 320
287 286 289 289 288 287 289 289 292 293 289 289 288 287 290 289 289 287 279 280 286 286 282 291 293 290 290 291 292 292 292 292 292 293 293 293 294 294 295 295 296 295 295 296 296 296 296 296 296 297 297 298 298 299 300 301 301 302 302 302 303 305 306 307 308 309 313 318 321 321 321 321 321 321 321 320 321 322 323 323 323 323 322 322 321 320
286 283 290 289 287 289 290 290 292 291 291 291 290 290 289 291 291 288 288 289 285 283 284 292 293 289 289 291 292 292 292 291 291 291 292 293 294 294 294 294 293 293 294 294 294 295 295 295 295 296 297 297 298 298 298 299 300 300 301 301 302 304 305 306 307 308 310 314 320 321 322 321 321 321 321 320 321 321 321 322 322 320 320 320 320 321
290 286 288 289 287 287 288 288 290 290 289 290 290 290 291 291 291 291 290 290 289 290 294 293 289 287 289 290 291 292 293 292 292 293 293 292 292 293 293 292 292 292 293 293 293 294 295 295 295 295 296 296 296 297 297 298 298 299 299 300 301 302 304 305 305 307 308 309 312 320 322 322 321 321 320 320 320 320 320 321 320 320 319 319 319 316
290 285 292 287 283 285 287 288 289 288 289 287 289 289 290 290 290 291 291 290 291 289 289 288 286 284 289 292 291 293 293 293 292 291 291 291 291 291 291 291 291 292 292 293 293 293 293 294 294 294 295 295 295 296 297 297 298 299 299 300 300 301 303 304 304 305 305 306 309 314 320 321 320 320 319 320 320 320 319 319 319 319 318 318 316 313
290 285 286 280 282 281 286 287 287 288 288 286 286 287 288 287 286 287 286 289 289 286 288 287 284 284 288 291 291 291 290 290 289 289 290 290 291 291 290 290 291 291 291 292 292 293 293 293 293 293 294 294 295 296 296 297 297 298 298 299 300 301 302 303 303 303 304 305 307 309 313 320 321 320 319 319 319 320 319 318 317 316 316 315 313 311
289 287 283 283 283 281 286 287 287 284 282 282 284 286 289 289 289 290 289 290 289 291 288 286 285 288 289 290 288 288 289 288 288 289 289 290 290 290 290 290 291 291 291 292 292 292 293 293 293 294 294 295 295 296 296 297 297 297 298 299 300 301 300 301 302 303 303 304 305 306 309 312 319 319 318 318 319 318 318 317 315 314 313 311 310 310
292 290 284 284 282 282 286 287 285 281 276 278 288 292 292 287 288 286 284 287 289 290 287 289 288 290 290 289 287 287 287 287 288 290 291 290 289 289 290 290 290 291 291 292 292 292 293 293 294 294 295 295 296 296 297 298 298 298 299 300 300 299 299 300 302 302 302 303 304 305 306 308 312 317 317 316 317 316 316 315 313 311 309 309 308 306
288 288 285 285 284 283 286 285 280 276 276 287 292 292 292 291 290 288 288 289 289 290 289 288 288 288 288 288 288 287 288 289 290 290 290 291 291 290 290 290 290 291 291 291 291 292 292 293 293 294 294 295 296 296 296 297 297 298 299 299 299 299 299 299 300 301 301 302 303 304 305 306 307 310 313 315 314 313 312 310 308 308 306 305 304 303
286 286 283 283 283 285 284 282 277 274 285 291 292 293 294 293 291 290 287 289 290 290 289 287 287 287 288 287 288 289 288 288 289 290 291 291 292 291 290 290 291 291 291 292 292 292 292 293 293 293 294 296 295 296 296 296 297 298 298 299 298 298 298 298 299 300 301 301 302 302 304 304 304 306 308 310 310 308 307 305 304 303 302 302 300 300
291 287 285 283 284 282 282 280 279 285 285 286 286 288 289 286 287 286 282 285 291 292 290 287 287 287 287 287 288 288 289 289 286 287 291 291 292 292 292 292 292 292 292 293 293 293 293 293 293 294 295 294 295 295 295 296 297 297 297 297 297 297 297 297 297 298 300 301 302 302 303 304 303 303 305 305 305 304 303 302 301 301 301 299 299 298
290 289 285 284 280 282 280 278 279 279 277 281 286 291 295 294 292 290 288 284 291 292 291 289 287 287 287 287 287 288 289 288 284 284 289 291 292 291 291 292 293 293 293 293 293 293 293 294 294 294 294 294 294 295 296 296 297 297 296 296 297 296 296 296 296 298 299 300 301 302 302 303 304 303 302 303 303 303 302 302 301 301 301 298 298 297
289 289 287 285 282 282 280 278 277 277 278 285 287 290 293 294 294 292 286 281 289 292 292 290 289 288 288 287 288 289 288 284 283 284 289 290 291 291 291 292 292 293 293 293 293 292 293 293 294 295 294 294 294 295 295 296 296 296 296 296 296 296 295 294 295 297 298 299 301 302 302 302 303 303 302 302 302 302 301 301 301 301 301 299 298 296
285 281 282 283 279 278 279 277 276 280 279 286 289 291 293 293 293 289 278 279 288 292 294 292 290 289 289 290 290 289 287 283 283 285 290 290 291 291 291 291 290 292 293 294 294 294 294 295 294 294 294 293 294 295 296 296 296 296 295 295 295 295 294 295 296 297 298 299 300 300 301 302 302 302 303 302 302 302 301 301 300 299 298 297 297 296
279 280 281 280 276 278 279 279 280 281 286 289 290 292 293 294 292 282 278 283 290 292 293 292 291 291 292 291 291 286 287 289 289 290 291 292 291 291 292 292 292 292 292 292 293 295 294 294 294 294 294 294 295 296 296 296 295 294 295 295 294 294 295 296 296 296 297 299 299 299 299 300 300 301 302 303 302 302 302 301 300 299 298 297 297 297
278 277 280 280 278 276 276 277 279 281 287 290 291 293 294 290 281 279 286 293 292 290 291 291 290 290 290 289 288 287 288 290 291 291 291 291 291 291 292 292 293 292 293 294 294 295 294 294 294 294 295 295 296 296 296 296 295 294 294 294 294 294 296 297 296 296 296 297 297 298 298 298 299 300 300 301 302 301 301 301 301 300 299 298 297 296
279 278 280 278 278 276 276 277 277 275 284 291 290 290 291 284 284 290 291 292 292 290 290 290 290 289 290 288 289 289 289 289 289 290 290 291 291 291 292 292 292 292 292 293 294 295 295 294 294 294 294 295 296 296 296 296 295 294 295 294 295 296 296 297 296 296 295 295 295 296 296 297 297 297 299 299 300 301 301 301 300 300 299 298 297 297
285 280 279 278 280 275 273 274 276 283 286 292 291 284 287 291 293 293 291 289 291 291 290 289 289 290 290 289 288 288 289 288 289 290 290 290 291 291 291 292 292 293 293 294 295 295 295 294 294 294 294 295 296 296 296 295 295 294 294 294 296 296 297 296 296 296 295 294 294 294 294 295 295 296 296 297 298 299 299 300 300 300 299 299 298 297
285 281 283 280 283 278 277 281 286 289 291 293 293 292 293 294 294 293 292 291 290 290 291 289 288 289 289 289 289 288 288 288 288 290 289 289 290 290 290 291 291 292 293 293 294 294 295 294 294 294 294 295 295 295 296 296 295 294 294 295 296 296 296 296 296 295 295 294 294 293 294 293 293 294 294 295 296 296 297 298 299 299 299 299 298 297
289 290 290 287 284 288 289 290 291 290 291 292 294 294 293 293 294 294 292 290 290 290 291 289 289 289 289 290 288 288 288 288 289 289 290 290 290 290 291 291 291 292 292 293 293 294 294 295 294 294 294 294 295 295 296 296 296 295 294 296 296 296 297 296 296 296 295 295 294 293 293 292 292 292 292 293 294 294 295 296 297 297 298 298 298 297
287 287 285 284 286 284 279 289 288 289 291 291 292 294 294 294 293 293 292 291 290 291 291 291 290 290 290 290 289 288 289 290 289 290 290 290 290 290 290 289 288 289 291 292 293 293 294 294 293 293 293 293 294 295 295 295 295 296 296 296 296 296 297 296 296 296 295 295 294 294 293 292 291 291 291 291 292 292 292 293 294 295 296 296 296 295
282 290 285 285 285 283 282 287 289 291 292 293 292 291 290 292 292 292 292 292 292 292 291 291 291 290 290 289 289 289 289 290 289 289 290 290 290 291 290 289 288 290 290 290 291 292 292 293 293 293 293 293 294 294 294 295 295 296 296 296 296 297 296 295 295 295 295 295 295 294 293 293 289 290 290 290 289 289 290 291 291 289 289 290 293 294
286 290 281 286 283 285 288 289 289 290 290 291 292 292 292 292 291 291 292 291 291 290 290 290 290 289 288 288 287 288 288 288 288 288 289 289 289 289 289 289 289 289 289 289 289 290 290 292 292 292 293 293 294 294 294 294 295 295 296 296 296 296 296 295 294 295 295 295 295 294 293 293 293 292 291 290 289 288 288 288 289 290 290 290 289 291
286 282 286 285 281 281 282 284 288 283 282 287 290 291 291 292 291 290 290 290 290 289 289 288 287 287 287 287 287 287 287 286 286 287 287 287 288 288 288 288 289 290 290 290 291 291 291 291 292 292 293 293 294 294 294 294 294 295 296 296 296 295 295 295 294 294 294 294 294 294 294 293 293 292 292 291 290 289 289 288 288 289 289 289 289 289
284 285 285 282 282 281 287 289 287 289 288 290 290 291 291 291 291 289 289 289 289 289 289 288 287 287 287 286 286 288 286 287 285 286 286 286 288 288 288 288 289 289 289 289 290 290 290 291 292 292 292 293 294 294 294 294 294 295 295 296 295 295 294 294 294 293 293 293 293 293 294 294 293 293 292 291 290 290 289 290 290 289 288 289 289 289
Wind_Speed
3 4 6 7 7 5 4 7 8 5 4 2 1 0 2 2 6 3 4 6 3 2 8 8 9 7 5 1 3 2 3 5 5 5 4 5 5 5 5 5 6 6 2 4 7 7 8 8 8 9 9 7 7 2 6 9 11 10 9 3 9 6 5 7 6 3 7 7 7 6 6 7 7 7 6 5 5 5 4 2 2 5 5 5 5 5
3 5 6 7 8 8 7 7 3 3 1 0 0 1 5 0 5 5 3 4 3 6 5 3 1 7 2 4 5 6 2 4 9 6 4 6 6 5 7 7 3 2 2 6 6 6 8 8 9 6 6 7 8 6 6 8 7 6 4 4 2 4 7 10 7 7 7 6 7 6 6 7 6 7 8 7 5 5 4 5 5 4 4 3 5 6
3 6 7 9 7 3 1 3 3 3 1 1 2 1 1 5 5 9 4 3 2 6 8 1 5 4 2 5 9 6 4 3 5 3 3 2 1 0 5 7 6 5 4 3 3 5 7 7 7 4 4 2 1 3 5 2 3 4 5 7 8 7 11 17 22 20 17 13 10 9 6 7 3 3 4 4 3 3 3 4 5 5 6 6 4 4
1 5 10 4 4 4 2 2 4 3 2 3 0 1 4 3 2 6 6 6 5 1 2 2 4 1 7 3 5 10 10 6 6 3 3 4 5 4 3 5 7 6 7 7 7 6 7 8 7 5 5 3 3 4 5 3 4 5 6 8 11 12 10 10 8 10 15 16 15 10 6 5 4 3 3 3 4 5 4 4 5 4 4 5 5 4
7 2 2 6 5 6 5 2 5 3 4 2 3 3 1 2 4 6 5 4 3 3 4 6 5 2 8 7 9 10 11 12 14 12 13 12 8 3 4 4 5 8 9 9 8 8 8 11 10 8 7 6 5 6 5 3 6 6 9 11 12 12 12 11 7 5 5 7 7 6 6 5 5 4 4 4 4 5 6 5 5 6 5 5 6 6
8 7 4 6 4 4 4 4 4 6 4 2 5 8 6 5 5 1 3 3 6 4 5 4 3 1 4 5 8 6 8 11 10 14 13 12 12 9 4 5 2 4 6 12 13 12 9 7 7 8 6 6 5 6 3 2 3 4 7 10 9 6 4 4 5 1 4 8 10 8 6 7 7 6 8 9 8 7 6 5 3 4 5 5 5 5
6 2 5 5 5 4 4 5 3 7 5 2 6 10 9 5 3 2 1 4 3 3 2 2 6 1 4 9 10 10 6 9 11 13 12 12 12 12 5 1 5 4 3 4 5 7 7 6 7 8 7 4 2 1 3 3 4 7 7 8 2 3 4 6 5 3 3 6 9 13 14 11 10 8 5 4 4 5 4 3 5 5 5 5 7 6
2 4 5 4 5 6 4 5 4 9 7 3 4 5 5 6 6 4 4 3 2 3 3 4 4 3 4 7 7 8 2 6 14 16 16 14 13 13 11 9 5 2 4 7 7 8 8 7 8 10 5 5 6 5 4 3 4 3 6 10 9 5 4 5 4 1 3 5 4 3 4 4 6 7 5 6 4 4 6 6 6 5 5 5 5 6
5 4 4 4 4 4 6 7 5 8 6 4 4 7 7 8 5 5 4 3 0 2 4 5 2 6 2 6 9 6 9 11 12 13 14 14 14 13 11 9 7 3 2 8 9 8 8 6 3 3 3 3 5 6 8 8 7 7 4 1 2 5 6 6 6 4 2 2 4 3 4 5 4 5 5 5 5 5 4 4 3 4 4 5 5 5
1 7 10 9 7 6 8 4 9 11 4 7 4 4 4 5 4 5 4 5 1 3 1 3 1 5 2 5 8 7 4 11 10 9 11 12 12 12 11 10 10 8 7 8 8 8 8 8 7 5 4 4 2 0 3 5 7 9 6 4 3 3 4 4 5 5 5 5 3 0 0 2 2 4 4 6 6 6 5 5 4 4 4 5 5 5
3 2 7 5 7 8 7 5 9 11 12 1 4 4 3 7 3 4 6 4 3 1 4 5 2 6 1 3 5 5 4 5 7 4 8 10 11 11 10 10 9 8 8 8 8 9 7 7 8 7 6 5 5 5 3 3 3 4 10 7 5 3 4 4 4 4 3 3 1 0 1 3 4 5 6 6 6 6 5 6 5 5 5 5 6 5
3 1 1 3 6 3 4 2 6 10 4 4 3 4 3 2 6 4 3 5 3 2 3 3 4 3 4 1 4 4 4 6 7 7 9 10 10 10 9 9 10 10 9 9 8 8 8 9 8 8 8 6 5 6 7 6 4 4 4 7 8 6 6 5 5 4 3 2 1 1 2 4 5 6 7 8 8 8 8 7 6 5 4 5 5 5
3 3 2 5 3 10 2 4 0 3 2 3 5 6 6 2 2 1 1 1 3 5 1 4 3 7 5 3 3 5 6 7 6 6 7 9 9 9 10 10 9 9 10 9 8 8 8 8 8 8 6 7 7 6 6 7 7 4 5 6 7 6 6 6 7 7 5 1 3 4 4 4 3 4 7 8 7 7 7 7 6 5 6 5 5 5
5 2 2 4 3 3 6 5 2 3 2 6 7 6 6 2 2 2 1 0 3 4 2 3 1 6 3 0 1 1 3 4 5 6 7 8 8 9 10 10 10 10 10 9 9 8 9 8 7 6 6 5 4 4 5 6 7 6 4 3 5 5 6 7 6 8 9 9 7 6 7 7 7 5 5 6 7 7 7 7 7 7 7 6 6 6
0 2 5 2 2 3 6 8 10 7 8 8 3 9 8 7 4 2 3 4 7 6 1 3 3 3 5 2 2 4 1 3 6 7 8 9 8 8 9 11 12 12 10 9 9 9 8 8 6 4 3 4 4 4 4 3 5 7 4 0 2 2 3 6 8 7 8 8 10 9 8 8 8 7 6 6 6 7 7 7 7 7 6 7 6 6
7 5 6 6 3 2 8 3 5 7 6 1 4 6 8 5 7 2 4 4 3 2 3 6 1 0 2 2 2 4 1 3 3 6 8 11 10 10 11 11 10 10 10 9 10 10 11 8 7 7 6 4 4 7 7 5 4 5 5 5 4 6 6 6 8 8 10 10 8 7 8 9 9 9 8 7 5 5 6 7 7 7 6 6 5 5
2 1 3 7 1 4 6 5 2 6 4 4 4 4 4 4 10 5 1 0 4 7 1 0 3 4 1 1 2 3 1 3 4 7 8 9 10 10 10 10 10 9 9 9 8 8 9 11 11 10 11 9 6 1 2 3 4 5 5 3 4 4 4 5 6 6 6 8 10 10 9 8 8 10 11 9 8 7 6 5 5 6 5 3 3 6
5 5 4 2 3 3 1 3 3 1 6 6 1 6 3 4 6 7 5 3 3 4 1 1 2 5 2 2 1 3 7 6 7 7 7 7 7 8 7 7 7 8 8 9 10 9 9 10 10 10 10 11 11 10 7 6 5 5 4 3 3 3 5 5 5 6 5 6 8 8 10 10 10 10 9 9 9 7 6 5 4 5 6 5 2 3
2 2 2 2 4 3 2 4 5 1 2 9 8 5 5 1 2 2 5 1 1 0 1 3 3 0 1 2 1 4 6 7 6 6 6 8 8 8 8 9 9 10 9 9 10 10 11 11 11 11 11 11 11 10 11 11 9 9 8 6 4 6 7 7 6 5 4 6 6 8 10 10 9 8 8 7 7 7 7 7 6 7 7 7 8 6
3 2 4 2 1 0 3 4 5 2 2 4 4 3 0 6 4 3 4 4 7 3 3 1 2 2 3 3 2 4 6 8 7 6 6 7 8 7 8 8 9 8 8 8 8 8 9 9 10 10 10 11 11 11 11 11 11 14 12 10 5 5 7 7 6 3 5 8 6 4 2 4 5 6 6 5 5 5 6 6 6 7 7 9 6 5
1 1 0 3 4 1 2 0 6 7 3 1 2 1 1 2 2 6 1 2 4 6 5 5 1 4 3 3 2 2 5 6 8 6 7 7 7 8 9 9 8 9 8 8 8 8 9 10 10 10 10 10 10 10 11 11 11 10 10 12 10 5 5 6 4 1 6 4 6 5 4 4 4 5 4 4 6 7 6 5 6 7 7 6 7 5
2 1 4 4 3 2 2 2 4 6 5 7 7 5 7 7 3 4 3 2 3 6 5 6 4 3 2 2 1 5 5 7 7 6 7 7 7 8 8 9 9 8 9 9 9 8 9 9 10 9 10 10 11 11 12 11 11 11 11 10 8 9 8 8 5 4 5 4 6 7 4 5 4 3 0 2 3 6 6 7 8 6 6 7 6 6
4 3 2 1 0 1 1 6 2 9 14 7 7 3 0 2 7 4 3 2 4 2 4 3 7 2 1 3 5 5 6 8 8 5 7 7 8 8 8 9 9 9 8 8 9 9 9 9 9 9 10 10 10 11 11 10 10 9 9 11 11 10 10 8 8 6 4 5 5 5 5 3 3 2 4 7 7 6 7 8 8 7 8 7 6 6
5 1 3 3 3 4 4 2 6 6 8 8 6 4 4 1 2 6 4 6 6 1 4 2 3 1 1 6 6 6 7 10 9 7 7 7 7 7 9 9 10 10 9 9 8 9 9 8 8 9 11 11 10 10 11 9 9 9 9 10 10 11 11 12 10 9 8 6 5 5 4 4 4 5 9 8 6 7 6 5 6 8 8 8 7 7
2 2 6 2 2 3 3 2 8 6 7 5 2 3 2 1 2 2 6 1 7 3 4 8 6 4 5 7 7 6 10 11 9 8 8 8 7 7 9 8 8 9 9 10 10 10 10 11 11 11 10 10 9 9 9 9 9 9 10 10 11 11 11 10 10 10 9 7 6 5 5 5 3 7 7 5 3 5 7 6 7 8 9 8 8 7
6 0 2 4 6 5 4 3 1 0 1 1 2 6 5 6 3 4 3 1 5 1 3 4 4 2 8 7 8 7 8 9 7 7 8 8 7 7 7 8 8 9 9 10 10 11 11 10 9 10 11 9 9 9 9 9 8 9 9 9 10 11 12 12 10 10 10 8 6 5 5 6 4 6 5 3 3 4 1 2 1 4 8 9 9 7
4 2 4 4 8 9 5 2 0 4 4 4 3 7 7 2 3 2 5 5 7 5 3 2 10 13 8 7 6 6 7 6 5 7 7 7 7 7 7 7 8 8 9 10 10 9 9 10 11 10 11 10 10 10 8 9 9 9 9 9 9 8 8 9 10 10 10 10 7 6 2 3 4 6 9 8 5 4 6 8 9 5 4 6 9 8
5 6 6 9 11 4 2 6 6 5 7 5 5 5 7 7 3 5 4 4 8 11 2 0 10 14 9 8 7 7 7 7 6 6 6 6 7 6 7 7 9 9 10 10 10 11 11 10 10 10 10 11 10 10 9 8 8 8 8 9 9 9 9 8 9 9 8 9 7 6 4 8 8 7 5 4 5 6 8 9 8 8 2 4 8 9
5 4 1 9 8 8 7 6 10 13 11 10 10 8 11 9 13 9 2 2 2 6 10 11 10 9 7 6 7 5 6 6 6 6 6 6 6 6 7 9 9 10 10 11 11 11 11 11 11 11 10 10 10 10 10 10 9 8 8 8 9 9 9 9 9 9 8 9 7 5 5 7 10 4 5 4 5 7 9 7 5 6 5 5 5 8
7 5 3 6 10 9 8 6 5 16 9 12 12 12 10 11 12 12 10 2 2 3 10 16 12 10 5 5 6 5 5 6 6 5 6 8 7 6 7 7 9 9 9 10 11 11 11 11 11 10 11 11 11 11 11 10 11 11 10 11 10 10 10 9 9 8 8 8 10 7 6 7 8 6 4 5 6 8 8 8 6 7 5 7 5 4
6 0 3 2 5 5 6 6 7 9 12 13 11 11 9 9 12 10 9 10 14 13 11 14 14 8 4 5 6 5 4 3 6 8 8 6 6 6 7 7 7 8 9 10 10 11 11 11 11 11 12 12 12 12 11 10 10 11 12 11 11 11 11 9 10 9 9 10 9 10 6 6 7 5 7 8 7 7 6 7 7 8 9 7 5 6
7 4 2 2 6 2 1 5 7 11 14 14 11 11 11 7 7 5 4 4 1 10 11 13 9 4 4 6 6 5 5 7 7 7 6 5 6 6 7 8 8 8 9 10 10 10 11 10 11 12 12 12 12 12 11 11 11 10 12 12 12 11 10 10 10 10 10 9 9 9 10 5 7 6 7 7 7 8 7 7 5 7 7 7 7 5
3 7 4 2 7 0 3 1 2 3 4 6 6 6 5 6 6 5 7 9 7 3 12 10 5 5 7 6 6 5 6 6 7 7 6 6 6 6 7 8 8 7 8 8 10 11 11 11 10 11 11 11 11 11 11 11 10 10 10 11 11 10 11 12 11 12 9 9 9 11 8 9 4 6 6 6 7 7 9 8 7 7 7 6 4 3
5 11 5 2 6 5 4 2 2 2 1 1 3 5 2 0 4 10 5 6 7 5 3 5 8 7 7 5 6 6 5 5 6 6 6 5 5 5 7 7 7 7 8 8 9 9 9 9 9 9 10 11 11 10 9 9 10 10 9 8 9 10 11 11 12 12 12 12 12 11 9 9 8 3 7 4 7 8 8 8 6 6 6 5 3 4
6 6 5 2 7 6 2 1 3 2 2 1 2 6 7 8 13 14 10 9 8 9 12 12 9 8 7 7 7 7 7 7 7 7 7 7 5 5 5 6 7 8 8 8 9 9 9 9 9 10 10 10 10 9 10 11 11 10 10 10 10 11 11 11 11 12 12 12 12 12 12 11 9 9 2 5 5 7 8 8 7 8 5 6 3 5
5 7 3 5 3 4 3 1 4 1 2 3 3 5 5 7 7 9 11 9 7 7 7 9 9 9 9 9 7 6 6 5 6 8 7 6 7 6 5 6 7 7 8 7 7 7 8 9 9 9 9 8 9 10 9 10 9 10 10 9 10 11 11 10 11 12 13 14 14 12 12 11 11 10 10 5 6 7 8 8 7 8 6 6 7 4
9 4 5 5 1 5 3 3 4 3 2 1 2 1 1 1 2 1 5 3 4 1 5 9 9 8 8 7 7 6 5 4 6 7 7 8 7 6 7 6 6 6 5 6 5 5 6 6 7 8 7 8 9 10 10 9 9 9 10 10 10 11 11 12 13 13 13 14 13 13 11 11 11 11 11 9 7 8 9 9 10 8 6 9 6 8
2 7 3 7 1 3 7 5 3 1 3 4 2 2 0 2 1 2 4 3 2 4 7 10 10 9 7 7 6 6 4 2 5 4 6 7 6 4 4 4 5 6 6 6 6 6 7 7 7 7 7 9 10 10 9 9 8 9 10 11 11 11 12 13 13 12 12 12 12 12 11 10 10 12 11 10 9 7 9 10 9 9 6 9 7 10
7 8 6 7 5 3 2 5 3 5 2 2 4 1 2 3 2 2 3 2 1 1 6 8 10 9 9 9 6 4 1 1 0 1 4 4 3 3 3 5 5 5 6 6 7 8 8 7 6 7 9 11 12 12 10 9 8 10 10 10 10 10 11 13 12 12 11 10 10 12 12 11 10 9 12 10 10 7 8 10 10 8 9 9 9 9
8 4 4 5 4 1 4 3 3 0 2 3 1 2 3 3 2 0 1 3 3 1 6 7 8 9 7 7 5 3 1 2 3 2 1 2 2 2 3 4 5 5 7 7 7 6 6 7 9 11 12 12 11 10 10 9 9 10 10 9 9 12 12 11 10 10 9 9 10 10 11 11 11 10 8 12 9 8 8 9 10 10 12 11 9 9
4 3 5 6 4 4 5 2 3 1 1 1 2 3 4 3 1 2 4 3 3 5 5 5 5 3 5 6 4 2 3 3 6 5 2 2 3 4 4 3 3 3 4 6 7 6 7 7 8 8 8 8 9 9 9 9 9 10 9 9 11 12 11 9 9 9 9 8 10 11 11 11 11 11 10 7 9 7 8 9 10 9 11 12 11 10
2 2 1 3 4 3 1 5 2 0 0 1 2 3 2 1 4 4 1 3 8 8 7 6 7 5 7 7 7 7 6 7 7 5 5 4 4 4 5 5 6 6 5 4 7 8 7 7 9 9 10 9 9 9 9 8 10 9 10 11 12 11 9 9 9 9 9 10 10 10 10 10 10 10 9 9 7 9 9 9 9 8 9 9 11 13
1 3 1 2 2 2 2 4 2 2 2 0 3 1 2 1 1 4 7 7 8 8 8 7 7 7 10 10 9 10 8 7 6 6 6 5 5 5 6 7 7 6 7 8 9 9 7 8 8 8 8 8 8 8 8 9 9 9 10 12 11 9 9 8 8 9 9 9 10 10 10 9 10 10 9 9 8 7 9 8 10 9 8 8 10 12
1 3 1 0 1 4 2 3 3 1 1 2 3 2 1 3 7 8 9 8 7 7 8 7 7 8 10 12 11 8 8 8 6 4 4 4 4 5 6 6 6 6 7 7 7 7 8 8 8 8 8 8 8 8 8 8 8 9 10 11 9 9 9 9 8 8 10 10 10 10 10 10 10 9 9 9 8 9 8 8 8 8 7 7 9 9
4 1 1 4 2 1 2 3 2 2 3 5 6 8 8 8 7 8 9 8 8 6 7 8 8 7 8 10 10 10 7 5 5 4 5 4 4 4 4 4 4 5 6 7 7 8 7 8 8 8 9 9 9 8 8 7 7 9 10 8 8 9 10 10 10 9 10 10 10 10 9 9 10 10 10 9 9 8 8 7 6 8 7 8 8 8
5 8 7 8 8 10 10 7 5 5 7 10 8 8 10 10 8 8 10 9 5 6 6 9 8 7 7 8 10 7 7 6 6 5 4 2 2 1 1 2 3 3 4 4 5 6 5 6 6 7 8 9 9 9 7 7 6 8 7 6 7 8 9 10 10 10 10 9 9 9 9 10 10 10 10 10 8 8 7 7 6 8 7 8 8 7
2 1 2 7 8 2 5 2 7 7 8 9 10 9 9 8 7 7 8 8 8 7 8 7 8 8 7 7 9 9 8 6 6 3 2 2 1 1 1 1 1 2 2 3 3 3 5 5 6 7 7 7 7 6 7 7 6 5 5 6 6 7 8 9 10 10 9 9 9 9 9 11 9 8 9 10 8 8 8 7 6 7 7 5 7 7
3 4 9 6 6 3 6 7 8 7 8 8 8 10 10 9 10 8 7 8 9 8 8 8 7 7 6 7 6 7 6 4 4 3 2 2 2 2 2 2 2 3 3 3 3 4 3 4 4 5 5 6 7 6 6 6 6 6 6 6 7 7 7 8 8 9 9 9 8 8 8 8 11 11 9 10 9 7 8 8 7 7 6 6 4 7
4 1 3 4 7 9 11 8 9 10 11 10 9 8 8 9 11 11 9 9 9 10 8 6 5 5 5 6 4 5 5 3 3 3 3 2 1 2 1 1 1 1 1 3 3 2 2 2 3 3 4 5 5 6 6 6 6 5 6 7 7 6 7 7 8 8 9 8 8 8 8 8 8 8 7 7 9 9 8 7 6 6 6 6 4 4
5 5 7 11 10 4 3 8 9 9 6 6 9 9 10 9 11 11 9 10 8 8 7 8 5 4 4 4 6 5 6 4 4 4 3 2 2 1 0 0 1 2 2 2 2 3 4 3 3 3 3 4 4 5 5 6 6 6 6 6 6 6 6 6 7 7 8 7 7 6 6 6 6 6 6 5 5 5 8 12 14 9 6 6 11 15
4 10 8 7 10 8 8 9 2 8 10 8 9 8 9 7 9 11 10 9 7 7 7 8 7 5 4 3 3 7 5 5 3 3 3 1 0 0 0 1 0 1 2 3 4 5 4 4 4 4 4 4 4 4 4 5 6 6 6 5 3 4 4 3 5 5 5 6 6 6 5 4 5 5 5 5 4 4 6 8 11 15 15 12 12 13
Wind_Direction
143 159 176 186 206 206 205 169 188 172 152 134 82 73 286 276 289 281 268 269 213 249 244 221 225 243 285 276 256 258 293 253 255 211 163 170 169 181 158 169 181 196 139 141 130 149 156 169 169 170 172 185 207 167 168 178 185 187 189 212 214 201 134 94 86 120 158 181 186 180 187 196 187 185 188 194 188 184 157 131 171 178 168 160 151 164
94 173 223 206 198 177 192 204 135 85 66 147 62 332 298 94 278 268 282 314 307 172 281 235 169 251 258 307 322 3 28 240 217 221 229 183 184 182 180 181 148 83 32 103 123 152 167 187 178 165 158 176 190 201 196 192 183 170 154 150 105 92 109 105 143 178 176 199 197 173 184 194 188 177 182 190 190 190 125 165 181 168 151 180 176 169
163 194 226 213 200 176 157 123 115 156 141 86 192 184 348 286 245 279 273 268 302 151 263 122 175 241 340 325 350 17 332 288 301 320 339 316 233 69 40 57 63 74 76 100 134 178 185 190 167 139 168 167 328 230 215 184 154 160 157 164 165 177 163 187 190 179 176 175 176 177 179 188 159 169 174 178 171 147 141 181 169 166 166 175 174 170
167 273 238 208 130 159 247 119 108 82 77 177 87 82 222 238 14 305 294 316 346 83 214 156 149 317 348 64 28 10 10 341 354 74 60 74 76 78 143 147 127 123 127 143 175 184 181 178 166 169 186 133 153 200 217 196 179 175 178 186 186 196 204 209 222 205 180 169 168 163 141 151 148 144 142 139 152 126 160 184 165 163 165 171 155 178
201 222 201 131 149 159 209 194 127 134 241 282 177 149 181 239 222 178 259 312 326 8 76 84 43 351 14 23 9 350 348 4 14 22 20 12 24 101 92 85 129 150 157 158 166 179 185 179 181 194 178 140 175 201 205 197 192 189 192 201 199 203 208 220 223 202 154 143 127 114 103 120 111 119 148 159 166 164 177 167 155 172 171 173 163 175
256 249 104 122 143 176 191 235 188 138 202 317 226 177 196 223 258 271 312 12 26 353 353 108 45 341 301 21 19 346 358 9 7 29 18 10 11 0 86 114 118 155 177 166 173 172 174 169 164 200 185 175 182 194 195 234 226 214 210 218 219 236 302 350 12 340 172 156 154 144 157 160 167 161 172 184 176 161 169 166 163 153 172 171 168 175
208 145 143 157 164 182 189 213 222 151 167 123 270 169 197 198 158 155 313 67 7 95 348 66 134 240 328 19 354 354 357 8 14 29 20 20 16 20 4 111 143 144 91 64 97 138 149 142 173 194 182 165 114 62 45 15 355 331 286 255 310 349 16 14 27 354 300 192 183 180 184 186 182 178 174 166 176 155 118 157 196 174 173 175 169 177
140 175 166 150 151 170 185 225 234 153 134 222 238 139 146 137 140 191 109 115 189 249 295 42 89 132 342 330 344 334 315 35 23 15 17 21 26 29 31 17 357 77 134 129 135 141 147 162 190 199 156 127 123 126 116 131 97 32 331 329 352 15 10 13 30 44 335 304 271 199 165 168 177 176 153 151 157 133 142 177 195 176 181 181 178 174
164 180 158 176 173 163 201 209 183 152 138 211 242 142 163 179 165 155 99 113 117 115 275 326 22 67 337 297 322 350 16 13 25 14 12 13 22 30 32 27 24 360 142 150 151 155 160 172 209 22 55 72 123 157 161 158 151 131 119 67 350 1 12 6 10 13 349 345 307 268 168 162 166 138 138 137 141 148 158 178 190 188 187 188 186 184
264 172 197 173 156 204 224 186 155 160 176 264 226 84 60 71 70 113 104 92 359 65 271 264 66 113 295 314 335 356 33 6 359 3 12 15 16 27 31 38 36 36 33 25 30 38 33 26 32 43 53 31 7 155 219 188 162 133 126 130 105 51 50 25 24 18 8 0 6 339 272 154 120 120 130 143 151 162 169 183 195 196 191 193 192 193
237 301 154 125 187 213 209 198 165 170 198 161 123 127 29 45 61 30 64 98 73 45 257 242 326 127 89 305 345 3 13 334 335 0 21 19 17 19 30 41 45 44 40 38 39 41 41 43 47 48 45 19 3 340 313 294 319 113 122 118 100 101 93 70 64 54 24 14 33 35 139 170 160 158 154 154 156 159 168 188 197 198 203 195 198 192
350 350 119 233 192 207 165 125 190 195 180 126 163 138 108 20 10 32 348 39 101 277 260 275 96 82 130 272 299 9 47 30 4 358 17 25 18 17 28 34 40 41 41 44 44 42 38 38 42 50 40 34 19 13 4 357 355 3 68 107 113 112 109 108 111 95 55 28 64 113 157 176 183 175 177 178 177 176 182 188 194 198 194 206 197 194
301 237 238 298 225 177 143 162 352 128 77 109 93 69 132 234 51 241 10 172 161 173 184 218 95 46 34 238 298 338 22 36 28 17 24 29 19 20 26 32 37 38 39 40 43 44 43 43 39 31 33 38 23 13 12 4 357 2 49 75 94 114 132 131 136 137 130 152 177 173 175 182 182 212 192 185 182 182 183 184 186 181 200 196 193 203
275 284 313 270 301 191 131 141 186 114 140 130 146 133 99 108 62 190 273 207 331 299 237 216 250 98 161 122 244 26 59 53 51 45 41 37 32 27 28 28 32 34 35 33 33 34 35 35 42 39 20 28 18 1 11 7 349 334 350 70 109 136 140 133 144 159 165 168 179 181 178 171 168 213 220 204 186 186 186 180 184 186 189 187 199 195
60 313 287 147 272 195 161 169 175 171 165 192 142 145 172 141 156 203 185 172 194 186 214 290 71 213 145 193 3 302 101 86 70 55 51 51 42 35 40 43 39 37 35 33 33 31 29 25 17 17 23 15 352 352 1 12 347 328 316 351 98 154 191 164 162 167 174 180 180 178 180 175 169 169 224 222 204 184 184 185 181 188 182 186 195 194
184 197 255 218 214 155 174 202 132 109 82 294 147 68 97 198 138 144 204 147 181 128 29 1 84 235 120 22 346 305 278 86 78 59 47 49 43 37 38 37 36 37 35 31 32 25 20 23 24 17 14 13 14 349 346 360 294 264 286 283 210 192 198 194 172 181 181 185 186 181 179 185 169 168 198 216 215 202 196 184 181 183 182 189 183 189
57 307 267 304 165 181 199 143 233 142 166 237 98 155 210 172 113 80 45 13 120 67 25 289 124 76 100 132 65 290 124 70 58 53 48 49 50 45 39 31 29 30 31 28 28 26 24 26 27 24 20 21 24 87 21 336 324 301 261 219 247 236 212 208 198 195 197 190 182 187 184 179 176 173 185 195 192 194 198 188 185 171 176 167 179 170
137 237 294 126 264 284 201 177 114 11 145 84 133 215 112 83 104 129 188 336 59 129 243 47 111 148 132 196 243 212 117 94 70 57 46 45 49 51 43 35 27 22 20 25 28 25 25 25 21 18 20 16 14 15 11 356 330 318 299 260 267 284 289 261 236 220 218 204 200 193 188 187 183 181 186 188 188 183 177 188 166 137 129 116 79 283
136 348 302 252 239 283 64 71 36 353 18 154 192 175 113 206 222 324 94 64 110 71 144 7 348 125 153 216 252 156 129 121 104 83 54 37 38 42 35 28 25 23 19 16 18 15 15 15 13 12 10 9 11 8 8 4 3 2 344 322 295 276 261 281 263 276 289 267 224 200 194 187 184 184 184 187 183 175 173 173 167 161 159 152 182 183
57 133 292 303 151 233 37 80 184 269 340 72 102 53 39 103 148 124 197 167 112 186 82 315 25 210 226 210 267 144 137 120 102 83 67 54 46 40 34 26 24 18 16 16 14 16 14 14 13 10 6 7 5 7 7 8 9 7 357 346 340 307 300 286 259 206 256 254 267 254 209 186 182 178 181 177 169 179 177 167 163 165 162 178 180 180
226 120 176 281 301 92 163 149 193 160 159 22 68 5 320 42 210 104 47 90 163 158 154 136 243 270 256 224 263 171 143 121 116 109 81 56 43 44 39 26 19 19 15 15 11 11 12 13 11 10 9 5 4 9 10 11 8 5 360 357 352 312 285 313 345 209 235 259 272 264 208 188 182 189 179 171 180 176 176 164 164 171 177 161 187 170
84 93 182 301 23 15 240 269 212 180 155 160 154 178 172 117 132 138 246 21 69 106 171 141 214 268 273 46 1 109 103 97 85 95 86 74 52 43 34 28 27 21 15 15 10 10 8 11 8 6 12 8 9 9 7 5 6 7 1 348 345 347 349 345 330 304 286 239 225 239 224 192 185 165 36 288 236 178 174 168 170 172 163 181 186 168
147 159 106 243 331 132 289 324 15 122 97 88 90 14 108 142 104 94 132 241 47 52 107 110 112 245 64 80 78 78 73 66 54 67 82 68 58 44 33 27 23 20 17 13 10 10 11 8 7 6 12 12 10 8 5 2 5 359 355 347 341 345 343 338 339 326 297 284 260 246 245 243 227 142 167 201 219 195 181 171 158 161 186 184 176 183
86 74 102 353 316 307 308 280 46 31 83 66 30 37 39 51 170 164 174 175 123 142 68 25 66 209 124 110 89 72 76 67 55 37 68 59 43 35 29 23 19 14 6 10 13 13 13 11 9 14 15 12 9 7 4 358 355 350 353 352 341 342 337 337 336 332 328 316 282 250 249 234 205 206 222 208 196 192 186 176 174 178 182 172 171 175
115 284 115 103 36 335 342 332 6 353 49 73 60 333 332 282 79 144 107 53 99 206 175 130 170 204 150 106 87 78 66 65 56 44 44 53 38 25 18 16 15 9 8 10 11 9 9 10 11 12 9 8 5 5 3 358 355 352 348 348 344 337 337 331 328 323 311 296 277 254 227 238 182 220 227 239 246 203 181 182 180 180 175 164 167 165
85 95 104 143 156 172 178 181 182 310 26 354 57 344 4 41 93 107 118 54 122 231 101 117 111 113 116 105 98 84 82 71 55 51 54 46 34 25 17 15 12 9 8 8 7 10 12 10 6 8 8 5 4 360 357 355 356 356 353 347 343 335 331 329 324 317 306 292 279 265 241 227 213 218 243 273 311 293 297 110 168 191 166 163 165 165
113 86 72 157 157 183 200 195 215 113 46 52 330 23 352 10 24 98 98 119 166 177 81 284 156 135 136 125 108 83 81 78 53 41 42 37 26 23 18 16 17 9 6 6 4 3 5 8 7 5 4 3 0 359 356 353 356 359 354 349 345 336 323 320 321 314 309 294 274 278 256 235 231 207 202 209 195 156 147 165 164 194 231 170 168 162
75 71 13 78 59 88 93 72 48 73 103 49 36 360 16 43 62 70 115 194 154 111 353 292 155 134 146 127 121 115 97 84 67 46 40 32 27 17 15 15 19 11 8 6 5 4 4 359 357 359 0 360 357 353 353 353 356 354 353 349 343 330 331 334 320 313 313 305 265 252 232 247 227 218 210 184 158 159 168 173 170 168 177 201 176 167
109 98 6 76 59 53 44 70 93 78 72 77 62 40 43 41 57 75 29 23 51 152 171 168 145 119 115 105 107 102 104 101 87 72 58 48 31 22 22 20 19 11 5 6 2 1 0 1 355 355 354 355 355 357 356 357 355 357 356 354 351 344 338 332 327 324 333 333 300 251 225 230 253 219 211 182 168 167 168 175 164 126 110 346 269 173
96 39 33 95 87 40 22 32 62 99 92 65 50 51 44 55 66 69 65 29 93 101 132 131 105 95 87 99 94 94 93 102 96 84 66 54 38 24 33 28 23 11 7 6 2 2 1 360 358 355 352 356 355 354 359 357 355 355 357 356 353 352 345 339 332 330 335 345 336 293 232 223 235 234 182 193 194 175 164 157 157 134 120 125 305 286
102 222 208 351 70 24 16 33 59 80 85 71 42 32 40 54 65 54 72 68 74 59 75 95 104 100 75 85 91 78 71 83 77 66 57 49 42 36 37 30 25 19 10 9 3 3 1 358 358 357 357 355 355 354 356 355 352 352 356 355 353 352 345 342 345 346 349 352 342 331 261 224 229 193 189 189 189 166 150 155 161 150 139 143 148 241
66 139 56 67 87 14 336 79 93 85 78 70 37 16 18 15 46 16 44 329 181 142 117 105 101 131 124 101 86 72 66 61 59 66 60 48 42 45 42 33 28 22 15 11 3 2 0 0 358 3 359 354 353 351 354 354 352 356 356 349 352 348 347 356 356 353 348 349 349 349 339 271 210 201 194 182 177 169 148 142 148 131 138 144 143 231
115 131 130 131 87 128 222 241 25 13 50 38 10 336 359 49 95 88 45 34 34 111 131 152 146 107 129 130 105 72 68 65 61 52 55 48 43 45 46 40 31 26 21 12 8 6 3 359 355 358 356 356 352 349 349 350 353 358 351 349 347 347 356 359 0 358 354 351 354 355 339 338 265 188 205 176 172 154 151 149 150 137 127 140 125 199
103 126 127 137 102 164 205 321 350 64 123 211 320 315 251 319 85 73 40 36 26 50 96 82 113 119 117 117 113 107 81 66 63 62 50 46 38 37 43 41 37 30 22 18 11 4 358 359 356 354 358 354 347 347 343 355 359 350 346 346 351 1 358 0 2 4 1 360 3 354 347 341 345 249 178 163 155 144 143 147 140 107 99 91 121 167
109 93 108 97 112 150 121 8 60 196 221 1 33 64 81 96 83 83 69 59 59 79 98 94 95 106 106 106 104 99 91 81 68 64 52 45 38 43 41 38 36 32 27 17 10 5 5 0 352 355 357 354 350 347 354 0 356 348 353 355 1 5 2 2 4 9 4 6 2 5 2 358 0 360 351 136 134 122 119 116 103 109 110 105 128 153
128 108 123 52 82 64 77 12 155 241 117 98 110 105 108 94 109 81 57 43 54 67 85 101 106 109 114 112 108 112 110 111 88 57 44 41 36 35 35 34 30 27 22 13 10 3 359 357 354 352 345 348 355 355 360 357 349 355 352 349 12 6 5 3 9 9 10 10 7 3 6 9 8 13 5 14 96 101 99 95 96 98 86 90 88 48
127 90 92 88 348 133 126 71 96 115 134 242 247 359 34 37 334 331 109 21 29 77 112 121 120 122 122 127 133 140 151 132 68 50 34 35 31 32 33 30 22 20 18 11 6 5 357 358 358 345 346 358 2 0 358 351 353 0 358 3 9 9 7 9 12 10 10 11 6 2 3 19 21 20 23 17 39 75 80 84 83 69 87 83 64 78
46 126 204 107 303 118 132 109 107 91 211 211 174 283 20 302 237 256 107 105 19 82 129 133 136 141 140 145 161 172 220 354 31 20 23 23 17 16 20 24 18 17 17 10 8 12 10 4 355 354 4 8 7 0 352 352 357 8 10 6 6 10 10 13 9 4 10 11 9 7 4 9 27 38 25 34 22 53 79 84 77 79 66 82 82 80
47 75 93 105 144 94 98 128 160 175 213 87 151 282 333 340 271 221 67 134 189 141 154 145 145 156 159 163 178 193 290 76 45 22 27 9 6 2 24 25 21 10 8 14 17 11 4 3 360 8 16 19 12 355 350 349 0 19 15 7 6 7 16 15 0 359 2 7 12 13 10 12 12 41 51 26 42 12 71 78 84 82 75 70 69 63
52 9 41 63 97 101 137 94 158 95 189 191 252 294 324 356 323 285 127 234 162 187 155 156 156 167 169 169 158 195 16 154 185 136 79 12 17 4 21 29 22 3 8 7 9 8 3 6 15 19 20 17 3 351 355 355 8 21 16 9 10 16 16 7 356 348 350 7 21 22 18 13 20 12 49 69 36 39 40 73 80 82 85 73 67 69
17 20 41 146 135 101 85 90 57 38 349 359 309 313 314 263 254 174 222 147 128 89 70 113 113 120 159 169 161 114 26 58 104 115 85 31 36 29 14 17 21 9 15 9 5 360 12 13 19 19 15 13 3 358 359 4 14 16 9 11 21 16 4 353 350 355 357 4 22 27 23 19 18 21 11 39 79 62 56 64 68 74 87 92 80 66
36 79 33 66 63 111 122 92 140 96 225 342 285 282 274 109 162 220 149 105 107 89 69 80 92 83 93 87 98 103 94 84 91 77 61 40 42 27 23 24 23 20 12 13 14 15 13 17 17 14 11 9 6 5 4 3 20 15 10 15 18 3 349 353 357 360 3 8 21 24 24 21 18 22 20 20 42 70 66 60 64 62 76 86 93 90
213 97 111 106 148 77 66 85 78 177 189 333 294 318 6 163 217 113 110 85 99 105 102 85 89 96 105 96 96 102 96 80 74 75 67 49 46 40 33 27 22 17 14 14 17 12 17 24 19 14 9 2 7 3 6 7 17 17 17 21 6 353 355 354 7 11 10 13 20 22 21 23 25 25 24 24 20 52 73 74 79 70 56 70 83 86
265 86 113 282 215 137 131 151 191 55 357 275 206 162 264 81 124 117 111 105 95 105 106 103 92 104 108 112 111 101 103 105 89 82 73 62 61 58 55 48 36 30 29 28 29 20 19 26 18 16 11 10 7 7 9 13 10 11 19 13 353 4 6 7 8 20 24 18 18 23 21 21 22 29 28 26 29 37 51 63 78 81 81 78 77 79
319 149 213 137 342 122 158 126 125 123 69 54 93 94 90 91 102 111 108 112 117 102 108 106 111 109 113 116 116 120 112 99 108 102 97 86 77 68 64 48 36 34 28 22 17 12 19 18 15 12 12 9 8 4 7 9 9 11 14 351 356 11 16 14 11 16 27 23 19 21 22 27 24 25 27 22 30 41 38 46 54 78 63 73 71 74
97 108 104 86 83 86 64 72 91 69 77 80 66 81 94 92 85 101 108 106 95 109 117 120 122 120 120 121 117 108 116 131 119 118 115 105 88 29 27 17 360 355 5 12 7 5 10 12 13 15 12 4 4 5 3 4 8 17 351 344 359 9 19 21 20 20 16 21 21 21 26 29 26 25 28 27 26 33 32 45 51 71 76 78 80 72
257 265 64 103 168 103 74 66 83 82 78 80 85 76 77 82 92 97 99 102 112 112 109 112 121 126 125 120 119 126 130 136 133 139 134 119 99 94 76 32 356 345 7 23 6 13 13 13 8 7 9 7 352 356 360 4 2 359 353 4 2 9 22 23 24 24 23 20 18 17 26 39 28 24 25 25 23 34 32 27 41 63 61 70 89 86
13 65 81 77 74 73 123 120 101 96 97 100 103 104 97 95 90 83 92 102 108 107 107 115 112 104 108 108 117 124 131 127 125 132 119 116 108 91 71 55 27 24 2 358 0 12 16 14 9 6 7 2 346 346 352 2 1 357 357 0 7 7 20 31 28 30 25 24 26 21 16 28 33 35 30 26 25 21 28 31 35 41 45 30 35 100
152 126 102 161 101 92 97 99 107 88 78 84 88 86 100 111 107 100 97 101 104 103 99 84 92 120 116 126 116 112 107 108 114 127 117 105 83 75 78 75 29 18 8 21 355 10 13 8 17 8 12 353 338 340 342 345 348 357 13 5 7 11 26 29 28 35 34 30 31 29 24 22 26 38 34 30 37 42 37 22 20 41 54 36 12 24
67 71 115 112 109 145 154 155 149 126 126 110 106 107 104 100 105 106 105 102 103 107 109 105 72 61 91 111 121 120 123 130 126 121 132 148 152 173 193 352 329 7 350 348 350 16 6 10 3 353 1 353 346 353 351 337 335 342 8 13 14 20 27 27 34 32 32 33 36 36 35 35 28 24 35 29 23 50 63 54 50 37 52 49 40 57
132 161 163 151 153 154 154 146 67 98 107 117 116 109 106 109 110 112 114 119 120 121 123 117 111 94 90 80 115 121 128 132 160 135 123 137 182 225 220 191 57 356 352 342 9 350 355 336 350 356 352 343 344 350 353 347 337 343 354 355 14 46 46 39 40 33 22 28 35 31 52 56 37 28 31 24 28 27 60 65 44 39 44 57 64 64